Date String (YYYY-MM-DD hh:mm:ss) UTC,Instrument flags,absolute air pressure of the measurement (hPa),sample flow rate (lpm),inlet stack bypass flow (lpm),air temperature of the measurement (°C),ambient temperature measured by the external sensor (°C),aerosol sample conditioner tube jacket temperature (°C),OPC LED temperature (°C),internal box temperature (°C),relative humidity of the measurement (%),span deviation,mass concentration of particles derived from Lorenz-Mie calculation of OPC scattering (μg/m³),mass concentration of particles derived from Lorenz-Mie calculation of OPC scattering (μg/m³),mass concentration of particles derived from Lorenz-Mie calculation of OPC scattering (μg/m³)
DateTimeUTC,F1_M11,P_M11,Q1_M11,Q2_M11,T1_M11,T2_M11,T3_M11,T4_M11,T5_M11,U1_M11,ZSPAN_M11,X2_M11,X0_M11,X1_M11
2023-09-25 12:00:00,SystemResetWarning,0835.7,5.00,000.00,028.0,026.5,000.0,036.5,029.5,9.4,0000.0,0003.41,0007.35,0002.99
2023-09-25 12:01:00,SystemResetWarning,0835.8,5.00,000.00,028.0,026.5,000.0,036.5,029.5,9.3,0000.0,0003.42,0007.37,0003.00
2023-09-25 12:02:00,SystemResetWarning,0835.8,5.00,000.00,028.0,026.5,000.0,036.4,029.5,9.4,0000.0,0003.39,0007.25,0003.00
2023-09-25 12:03:00,SystemResetWarning,0835.8,5.00,000.00,028.0,026.5,000.0,036.4,029.5,9.3,0000.0,0003.38,0007.20,0002.99
2023-09-25 12:04:00,SystemResetWarning,0835.8,5.00,000.00,028.0,026.5,000.0,036.4,029.5,9.3,0000.0,0003.36,0007.12,0003.01
2023-09-25 12:05:00,SystemResetWarning,0835.8,5.00,000.00,028.0,026.5,000.0,036.4,029.5,9.3,0000.0,0003.34,0006.34,0003.02
2023-09-25 12:06:00,SystemResetWarning,0835.8,5.00,000.00,028.0,026.5,000.0,036.4,029.4,9.3,0000.0,0003.34,0006.07,0003.03
2023-09-25 12:07:00,SystemResetWarning,0835.8,5.00,000.00,028.0,026.4,000.0,036.4,029.4,9.4,0000.0,0003.34,0005.80,0003.03
2023-09-25 12:08:00,SystemResetWarning,0835.8,5.00,000.00,028.0,026.4,000.0,036.4,029.4,9.4,0000.0,0003.38,0005.34,0003.05
2023-09-25 12:09:00,SystemResetWarning,0835.8,5.00,000.00,028.0,026.4,000.0,036.4,029.4,9.5,0000.0,0003.42,0006.06,0003.07
2023-09-25 12:10:00,SystemResetWarning,0835.8,5.00,000.00,028.0,026.4,000.0,036.4,029.4,9.7,0000.4,0003.45,0006.19,0003.09
2023-09-25 12:11:00,SystemResetWarning,0835.9,5.00,000.00,028.0,026.4,000.0,036.4,029.4,9.7,-000.1,0003.43,0006.19,0003.07
2023-09-25 12:12:00,SystemResetWarning,0835.9,5.00,000.00,028.0,026.4,000.0,036.4,029.4,9.8,0000.0,0003.43,0006.29,0003.08
2023-09-25 12:13:00,SystemResetWarning,0835.9,4.99,000.00,028.0,026.4,000.0,036.4,029.4,10.1,0000.0,0003.45,0006.93,0003.09
2023-09-25 12:14:00,SystemResetWarning,0835.9,5.00,000.00,028.0,026.4,000.0,036.4,029.4,10.3,0000.0,0003.45,0007.13,0003.10
2023-09-25 12:15:00,SystemResetWarning,0835.9,5.00,000.00,028.0,026.4,000.0,036.4,029.4,10.5,0000.0,0003.46,0007.45,0003.09
2023-09-25 12:16:00,SystemResetWarning,0835.9,5.00,000.00,027.9,026.4,000.0,036.4,029.4,10.5,0000.0,0003.50,0008.50,0003.09
2023-09-25 12:17:00,SystemResetWarning,0835.9,5.00,000.00,028.0,026.4,000.0,036.4,029.4,10.1,0000.0,0003.49,0008.66,0003.07
2023-09-25 12:18:00,SystemResetWarning,0835.9,4.99,000.00,028.0,026.4,000.0,036.4,029.4,10.6,0000.0,0003.48,0009.30,0003.06
2023-09-25 12:19:00,SystemResetWarning,0835.9,4.99,000.00,027.9,026.4,000.0,036.4,029.4,10.4,0000.0,0003.44,0009.64,0003.04
2023-09-25 12:20:00,SystemResetWarning,0835.9,5.01,000.00,027.9,026.4,000.0,036.4,029.4,10.6,0000.0,0003.39,0009.31,0003.02
2023-09-25 12:21:00,SystemResetWarning,0835.9,5.01,000.00,027.9,026.4,000.0,036.4,029.4,10.8,0000.0,0003.34,0009.10,0003.00
2023-09-25 12:22:00,SystemResetWarning,0835.9,4.98,000.00,027.9,026.4,000.0,036.4,029.4,10.6,0000.0,0003.34,0009.06,0003.03
2023-09-25 12:23:00,SystemResetWarning,0835.9,5.00,000.00,027.9,026.4,000.0,036.4,029.4,10.7,0000.0,0003.36,0009.06,0003.03
2023-09-25 12:24:00,SystemResetWarning,0835.9,5.01,000.00,027.9,026.4,000.0,036.4,029.4,10.7,0000.0,0003.36,0008.81,0003.01
2023-09-25 12:25:00,SystemResetWarning,0835.9,5.00,000.00,027.9,026.4,000.0,036.4,029.4,10.7,0000.0,0003.36,0008.94,0002.98
2023-09-25 12:26:00,SystemResetWarning,0836.0,4.99,000.00,027.9,026.4,000.0,036.4,029.4,10.7,0000.0,0003.35,0008.89,0002.98
2023-09-25 12:27:00,SystemResetWarning,0836.1,5.00,000.00,027.9,026.4,000.0,036.4,029.4,10.7,0000.0,0003.32,0008.13,0002.97
2023-09-25 12:28:00,SystemResetWarning,0836.1,5.01,000.00,027.9,026.4,000.0,036.4,029.4,10.7,0000.0,0003.30,0008.31,0002.97
2023-09-25 12:29:00,SystemResetWarning,0836.1,5.01,000.00,027.9,026.4,000.0,036.4,029.4,10.9,0000.0,0003.32,0007.84,0002.98
2023-09-25 12:30:00,SystemResetWarning,0836.1,5.01,000.00,027.9,026.4,000.0,036.4,029.4,10.9,0000.0,0003.32,0007.38,0002.97
2023-09-25 12:31:00,SystemResetWarning,0836.1,5.00,000.00,027.9,026.4,000.0,036.4,029.4,10.9,0000.0,0003.31,0006.96,0002.97
2023-09-25 12:32:00,SystemResetWarning,0836.1,5.00,000.00,027.9,026.4,000.0,036.4,029.4,10.9,0000.0,0003.32,0007.19,0002.97
2023-09-25 12:33:00,SystemResetWarning,0836.1,5.00,000.00,027.9,026.4,000.0,036.3,029.4,10.9,0000.0,0003.32,0007.58,0002.95
2023-09-25 12:34:00,SystemResetWarning,0836.1,4.99,000.00,027.9,026.4,000.0,036.3,029.4,10.7,0000.0,0003.30,0007.58,0002.94
2023-09-25 12:35:00,SystemResetWarning,0836.1,5.00,000.00,027.9,026.4,000.0,036.3,029.4,10.7,0000.0,0003.30,0007.90,0002.93
2023-09-25 12:36:00,SystemResetWarning,0836.1,5.01,000.00,027.9,026.4,000.0,036.3,029.4,10.6,0000.0,0003.32,0008.38,0002.95
2023-09-25 12:37:00,SystemResetWarning,0836.1,5.00,000.00,027.9,026.4,000.0,036.3,029.4,10.6,0000.0,0003.33,0008.45,0002.94
2023-09-25 12:38:00,SystemResetWarning,0836.1,4.99,000.00,027.9,026.4,000.0,036.3,029.3,10.6,0000.0,0003.32,0008.29,0002.94
2023-09-25 12:39:00,SystemResetWarning,0836.1,4.99,000.00,027.9,026.4,000.0,036.3,029.4,10.6,0000.0,0003.33,0007.81,0002.94
2023-09-25 12:40:00,SystemResetWarning,0836.1,5.00,000.00,027.9,026.4,000.0,036.3,029.4,10.6,0000.0,0003.35,0007.83,0002.95
2023-09-25 12:41:00,SystemResetWarning,0836.1,5.01,000.00,027.9,026.4,000.0,036.3,029.4,10.6,0000.0,0003.36,0008.27,0002.95
2023-09-25 12:42:00,SystemResetWarning,0836.0,5.01,000.00,027.9,026.4,000.0,036.3,029.3,10.6,0000.0,0003.36,0009.10,0002.93
2023-09-25 12:43:00,SystemResetWarning,0836.1,5.00,000.00,027.9,026.4,000.0,036.3,029.3,10.5,0000.0,0003.35,0009.44,0002.93
2023-09-25 12:44:00,SystemResetWarning,0836.1,4.99,000.00,027.9,026.3,000.0,036.3,029.3,10.5,0000.0,0003.37,0009.55,0002.94
2023-09-25 12:45:00,SystemResetWarning,0836.1,4.99,000.00,027.9,026.3,000.0,036.3,029.3,10.6,0000.0,0003.36,0009.49,0002.95
2023-09-25 12:46:00,SystemResetWarning,0836.1,4.99,000.00,027.9,026.3,000.0,036.3,029.3,10.6,0000.0,0003.37,0009.27,0002.96
2023-09-25 12:47:00,SystemResetWarning,0836.2,5.01,000.00,027.9,026.3,000.0,036.3,029.3,10.6,0000.0,0003.38,0008.73,0002.96
2023-09-25 12:48:00,SystemResetWarning,0836.2,5.01,000.00,027.9,026.3,000.0,036.3,029.4,10.6,0000.0,0003.39,0009.03,0002.98
2023-09-25 12:49:00,SystemResetWarning,0836.2,5.00,000.00,027.9,026.3,000.0,036.3,029.4,10.6,0000.0,0003.43,0009.13,0002.99
2023-09-25 12:50:00,SystemResetWarning,0836.3,5.00,000.00,027.9,026.4,000.0,036.3,029.4,10.7,0000.0,0003.47,0009.06,0003.02
2023-09-25 12:51:00,SystemResetWarning,0836.3,5.00,000.00,027.9,026.4,000.0,036.3,029.4,10.6,0000.0,0003.48,0009.08,0003.03
2023-09-25 12:52:00,SystemResetWarning,0836.3,5.00,000.00,027.9,026.4,000.0,036.3,029.4,10.6,0000.0,0003.48,0008.85,0003.05
2023-09-25 12:53:00,SystemResetWarning,0836.3,5.00,000.00,027.9,026.4,000.0,036.3,029.4,10.6,0000.0,0003.53,0008.11,0003.09
2023-09-25 12:54:00,SystemResetWarning,0836.3,5.00,000.00,027.9,026.4,000.0,036.3,029.4,10.7,0000.0,0003.55,0008.10,0003.10
2023-09-25 12:55:00,SystemResetWarning,0836.3,5.00,000.00,027.9,026.4,000.0,036.3,029.4,10.8,0000.0,0003.58,0008.17,0003.11
2023-09-25 12:56:00,SystemResetWarning,0836.2,5.00,000.00,027.9,026.4,000.0,036.3,029.4,10.9,0000.0,0003.62,0008.24,0003.12
2023-09-25 12:57:00,SystemResetWarning,0836.3,5.00,000.00,027.9,026.4,000.0,036.3,029.4,10.7,0000.0,0003.62,0008.41,0003.12
2023-09-25 12:58:00,SystemResetWarning,0836.2,5.00,000.00,027.9,026.4,000.0,036.3,029.4,10.7,0000.0,0003.60,0008.28,0003.13
2023-09-25 12:59:00,SystemResetWarning,0836.2,5.01,000.00,027.9,026.4,000.0,036.3,029.4,10.7,0000.0,0003.60,0007.94,0003.14
